Home > Weather > Cardiff > Past weeks

Flag for United Kingdom Past Weather in Cardiff, Wales, United Kingdom — Yesterday and Last 2 Weeks

Now
64 °F

Scattered clouds.


Feels Like: 64 °F
Forecast: 53 / 68 °F
Wind: 15 mph from West

Location: Wales Airport

Current Time: Jul 29, 2016 at 5:04:47 PM

Latest Report: Jul 29, 2016 at 4:20 PM


Visibility: N/A

Pressure: 29.89 "Hg

Humidity: 78%

Dew Point: 57 °F

Location of CardiffLocation

Past Weather in Cardiff — Graph

°F

Cardiff Temperature Yesterday

Maximum temperature yesterday: 66 °F (at 2:20 PM)
Minimum temperature yesterday: 52 °F (at 12:50 AM)
Average temperature yesterday: 60 °F

High & Low Weather Summary for the Past Weeks

 TemperatureHumidityPressure
High86 °F (Jul 19, 1:50 PM)100% (Jul 15, 5:20 PM)30.36 "Hg (Jul 15, 5:20 PM)
Low52 °F (Jul 15, 2:20 AM)46% (Jul 19, 4:20 PM)29.71 "Hg (Jul 20, 3:20 AM)
Average63 °F86%30.09 "Hg
* Reported Jul 14 3:20 PM — Jul 29 3:50 PM, Cardiff, Weather by CustomWeather, © 2016

Note: Actual official high and low records may vary slightly from our data, if they occured in-between our weather recording intervals... More about our weather records

Advertising

Cardiff Weather History for the Previous 24 Hours

Scroll right to see more
 ConditionsComfort  
Time TempWeatherWind HumidityBarometerVisibility
3:50 PM
Fri, Jul 29
64 °FScattered clouds.15 mph78%29.89 "HgN/A
3:20 PM66 °FScattered clouds.15 mph78%29.89 "HgN/A
2:50 PM64 °FScattered clouds.14 mph83%29.89 "HgN/A
2:20 PM64 °FPartly sunny.15 mph83%29.89 "HgN/A
1:50 PM66 °FScattered clouds.15 mph78%29.89 "HgN/A
1:20 PM64 °FScattered clouds.13 mph78%29.89 "HgN/A
12:50 PM64 °FBroken clouds.13 mph83%29.89 "HgN/A
12:20 PM64 °FScattered showers. Partly sunny.13 mph83%29.89 "HgN/A
11:50 AM64 °FScattered clouds.14 mph83%29.89 "HgN/A
11:20 AM64 °FScattered clouds.12 mph88%29.86 "HgN/A
10:50 AM63 °FBroken clouds.9 mph94%29.86 "HgN/A
10:20 AM61 °FScattered showers. Partly sunny.7 mph94%29.86 "HgN/A
9:50 AM61 °FScattered showers. Partly sunny.8 mph94%29.86 "HgN/A
9:20 AM61 °FDrizzle. Fog.8 mph94%29.86 "Hg3 mi
8:50 AM61 °FLight rain. Partly sunny.10 mph100%29.86 "Hg5 mi
8:20 AM61 °FLight rain. Partly sunny.9 mph100%29.86 "Hg4 mi
7:50 AM61 °FDrizzle. Low clouds.10 mph100%29.86 "Hg2 mi
7:20 AM61 °FMostly cloudy.7 mph94%29.86 "HgN/A
6:50 AM59 °FDrizzle. Cloudy.8 mph100%29.86 "Hg2 mi
6:20 AM61 °FLight rain. Low clouds.12 mph100%29.86 "Hg4 mi
5:50 AM61 °FLight rain. Low clouds.15 mph100%29.83 "Hg4 mi
5:20 AM61 °FDrizzle. Low clouds.14 mph100%29.83 "Hg2 mi
4:50 AM61 °FDrizzle. Low clouds.12 mph100%29.86 "Hg5 mi
4:20 AM61 °FLight rain. Low clouds.12 mph100%29.86 "Hg3 mi
3:50 AM61 °FPassing clouds.12 mph100%29.86 "Hg3 mi
3:20 AM61 °FDrizzle. Low clouds.12 mph100%29.86 "Hg2 mi
2:50 AM61 °FPassing clouds.14 mph100%29.86 "Hg4 mi
2:20 AM61 °FDrizzle. Low clouds.13 mph100%29.86 "Hg4 mi
1:50 AM61 °FPassing clouds.13 mph100%29.86 "Hg4 mi
1:20 AM61 °FDrizzle. Mostly cloudy.13 mph100%29.86 "Hg4 mi
12:50 AM61 °FDrizzle. Fog.8 mph94%29.89 "Hg3 mi
12:20 AM61 °FLight rain. Mostly cloudy.10 mph94%29.89 "HgN/A
11:50 PM
Thu, Jul 28
61 °FLight rain. Mostly cloudy.10 mph94%29.89 "HgN/A
11:20 PM59 °FDrizzle. Mostly cloudy.12 mph100%29.89 "Hg2 mi
10:50 PM61 °FLight rain. Mostly cloudy.12 mph94%29.89 "HgN/A
10:20 PM61 °FMostly cloudy.8 mph94%29.89 "HgN/A
9:50 PM61 °FScattered clouds.10 mph94%29.89 "HgN/A
9:20 PM61 °FScattered showers. Partly sunny.12 mph94%29.89 "HgN/A
8:50 PM61 °FScattered showers. Partly sunny.14 mph94%29.89 "HgN/A
8:20 PM63 °FScattered showers. Partly sunny.14 mph88%29.89 "HgN/A
7:50 PM63 °FScattered showers. Partly sunny.15 mph94%29.89 "HgN/A
7:20 PM63 °FScattered showers. Partly sunny.15 mph94%29.89 "HgN/A
6:50 PM63 °FDrizzle. Fog.15 mph94%29.89 "Hg1 mi
6:20 PM63 °FDrizzle. Fog.12 mph94%29.89 "Hg6 mi
5:50 PM63 °FScattered showers. Broken clouds.13 mph94%29.89 "HgN/A
5:20 PM63 °FScattered showers. Partly sunny.12 mph94%29.89 "HgN/A
Weather by CustomWeather, © 2016

See weather overviewHow to use our weather pages